Location: Moscow
(55.7500°N, 37.5830°E)
Time: 16:49:09
(UTC+03:00)

Transit 2A - Pass Details

Date: 04 December 2021
Orbit: 591 x 967 km, 66.7° (Epoch: 21 January)

Event Time Altitude Azimuth Distance (km) Brightness Sun altitude
Rises 23:59:24 0° 179° (S) 3,337 - -56.3°
Reaches altitude 10° 00:02:02 10° 168° (SSE) 2,469 - -56.3°
Maximum altitude 00:06:52 28° 111° (ESE) 1,608 - -56.4°
Drops below altitude 10° 00:12:02 10° 55° (NE) 2,657 - -56.4°
Sets 00:14:58 0° 45° (NE) 3,637 - -56.5°
